EDT,Max TemperatureF,Mean TemperatureF,Min TemperatureF,Max Dew PointF,MeanDew PointF,Min DewpointF,Max Humidity, Mean Humidity, Min Humidity, Max Sea Level PressureIn, Mean Sea Level PressureIn, Min Sea Level PressureIn, Max VisibilityMiles, Mean VisibilityMiles, Min VisibilityMiles, Max Wind SpeedMPH, Mean Wind SpeedMPH, Max Gust SpeedMPH,PrecipitationIn, CloudCover, Events, WindDirDegrees
2013-10-1,78,66,55,63,59,55,100,82,54,30.16,30.10,30.07,10,10,7,12,4,,0.00,4,,215
2013-10-2,80,70,59,70,64,59,100,88,65,30.18,30.13,30.09,10,10,7,6,2,,0.00,5,,212
2013-10-3,77,70,64,70,66,64,100,91,65,30.16,30.11,30.07,10,8,0,6,2,,0.00,5,Fog-Rain,179
2013-10-4,82,71,60,64,64,61,100,81,54,30.17,30.12,30.09,10,10,5,8,3,,0.00,1,,205
2013-10-5,84,74,64,68,65,63,100,80,51,30.12,30.07,29.98,10,10,10,14,5,18,0.00,4,,200
2013-10-6,77,64,51,68,61,52,100,90,69,29.98,29.90,29.81,10,8,1,16,6,24,0.00,5,Rain,213
2013-10-7,62,53,44,52,45,41,100,78,45,30.17,30.03,29.91,10,10,10,13,5,16,0.00,2,Rain,295
2013-10-8,66,54,41,46,45,41,100,77,49,30.25,30.20,30.17,10,10,4,14,4,21,0.00,0,,67
2013-10-9,73,58,42,55,49,43,100,80,50,30.24,30.19,30.17,10,10,10,8,1,,0.00,1,,348
2013-10-10,69,56,42,52,47,43,100,77,38,30.21,30.15,30.10,10,10,0,6,0,,0.00,0,,3
2013-10-11,75,60,44,55,50,45,100,78,44,30.13,30.09,30.05,10,10,10,6,0,,0.00,0,,31
2013-10-12,77,62,46,55,52,46,100,78,41,30.16,30.10,30.06,10,10,5,6,1,,0.00,0,,302
2013-10-13,75,62,50,61,55,50,100,82,53,30.29,30.23,30.16,10,9,5,9,2,,0.00,2,,18
2013-10-14,71,61,51,59,56,52,100,88,60,30.32,30.25,30.17,10,7,2,6,2,,0.00,4,,41
2013-10-15,73,62,51,61,58,52,100,87,61,30.18,30.09,30.01,10,8,0,9,2,,0.00,3,Fog-Rain,215
2013-10-16,64,60,55,63,59,54,100,95,88,30.03,30.00,29.96,10,8,2,9,4,,0.00,6,Rain,229
2013-10-17,55,50,42,55,50,43,100,93,72,30.04,29.96,29.91,10,7,2,10,3,,0.00,7,Rain,326
2013-10-18,62,50,37,50,43,37,100,83,48,30.10,30.04,30.00,10,7,0,7,1,,0.00,3,Fog,208
2013-10-19,51,44,37,50,43,37,100,92,76,30.07,29.97,29.89,10,9,3,13,5,20,0.00,5,Rain,230
2013-10-20,59,46,33,43,38,34,100,82,47,30.12,30.08,30.05,10,9,0,10,3,,0.00,0,Fog,204
2013-10-21,66,52,37,43,39,36,100,68,34,30.10,30.03,29.96,10,10,10,13,5,18,0.00,1,,213
2013-10-22,53,46,39,48,38,30,100,74,44,30.08,29.99,29.87,10,10,7,13,3,20,0.00,4,Rain,6
2013-10-23,46,39,32,45,36,30,100,82,61,30.10,29.95,29.78,10,10,10,18,7,25,0.00,6,Rain,278
2013-10-24,46,40,33,36,32,28,93,79,61,30.32,30.18,30.09,10,10,10,15,3,23,0.00,8,Rain,289
2013-10-25,46,38,30,30,27,23,93,72,46,30.49,30.40,30.32,10,10,10,8,4,,0.00,1,,319
2013-10-26,53,40,28,36,30,27,100,69,38,30.34,30.18,30.02,10,10,10,16,5,25,0.00,3,,221
2013-10-27,62,47,32,45,40,32,100,78,48,30.12,30.09,30.06,10,10,10,8,3,,0.00,3,,254
2013-10-28,59,52,46,55,51,45,100,95,82,30.29,30.20,30.10,10,7,0,6,1,,0.00,8,Fog-Rain,173
2013-10-29,62,54,46,55,52,46,100,93,72,30.35,30.29,30.20,10,5,0,7,1,,0.00,7,Fog-Rain,185
2013-10-30,71,62,53,63,59,54,100,92,73,30.23,30.16,30.10,10,8,1,14,5,20,0.00,6,Rain,212
2013-10-31,66,62,59,63,57,52,94,82,64,30.10,29.84,29.54,10,10,7,28,9,40,0.00,6,Rain,202